Location: Irma
(52.9170°N, 111.2330°W)
Time: 10:49:24
(UTC-07:00)

Cosmos 1633 Rocket - Visible Passes

Search period start: 22 December 2014 00:00
Search period end: 01 January 2015 00:00
Orbit: 608 x 626 km, 82.5° (Epoch: 21 December)

Date Brightness Start Highest point End Pass type
(mag) Time Alt. Az. Time Alt. Az. Time Alt. Az.
22 Dec 4.6 06:57:18 10° N 07:01:19 35° ENE 07:05:18 10° SE visible
23 Dec 3.7 07:13:50 10° N 07:18:09 57° ENE 07:22:25 10° SSE visible
24 Dec 5.8 05:53:56 10° NNE 05:56:24 15° ENE 05:58:51 10° E visible
24 Dec 3.0 07:30:31 10° NNW 07:34:54 86° W 07:39:14 10° S visible
25 Dec 5.3 06:09:59 10° NNE 06:13:25 22° ENE 06:16:50 10° ESE visible
25 Dec 3.3 07:47:20 10° NNW 07:51:34 51° W 07:55:45 10° S visible
26 Dec 4.6 06:26:21 10° N 06:30:21 34° ENE 06:34:19 10° SE visible
27 Dec 3.7 06:42:53 10° N 06:47:11 56° ENE 06:51:27 10° SSE visible
28 Dec 5.9 05:22:59 10° NNE 05:25:25 15° ENE 05:27:51 10° E visible
28 Dec 3.0 06:59:33 10° NNW 07:03:56 87° W 07:08:16 10° S visible
29 Dec 5.4 05:39:01 10° NNE 05:42:26 22° ENE 05:45:50 10° ESE visible
29 Dec 3.2 07:16:21 10° NNW 07:20:35 52° W 07:24:47 10° S visible
30 Dec 4.6 05:55:22 10° N 05:59:22 34° ENE 06:03:20 10° SE visible
30 Dec 3.8 07:33:18 10° NNW 07:37:09 31° W 07:40:58 10° SSW visible
31 Dec 3.7 06:11:54 10° N 06:16:11 56° ENE 06:20:27 10° SSE visible
31 Dec 4.4 07:50:31 10° NW 07:53:37 19° W 07:56:43 10° SW visible
